Weather in San Jose

United States     37°20′16″N   121°53′29″W
temp.,
°C
wind,
m/s
gust,
m/s
humid.,
%
clouds,
%
prec.,
mm/h
press.,
hPa
HPBL,
m
16 may, sun
sun1623:00+9ssw228847 0.0 1013138
02:00+9sw1290100 0.0 1013187
05:00+9s2392100 0.1 1013169
08:00+11s228280 0.0 1014435
11:00+18ssw225311 0.0 1014801
14:00+24ssw12394 0.0 10131188
17:00+24wnw23390 0.0 10121086
20:00+15wsw12691 0.0 1014166
17 may, mon
mon1723:00+10ssw228828 0.0 1016144
02:00+8ssw229035 0.0 1016134
05:00+8ssw229230 0.0 1016154
08:00+11ssw11759 0.0 1017364
11:00+21nw12380 0.0 1016818
14:00+24wnw4431100 0.0 10151099
17:00+20nw4444100 0.0 1016781
20:00+13wnw236925 0.0 1017223
18 may, tue
tue1823:00+9sw118410 0.0 1018103
02:00+8sw11873 0.0 101877
05:00+7ssw11904 0.0 101845
08:00+13sw12710 0.0 1019267
11:00+21nw45270 0.0 1018947
14:00+23nw46180 0.0 10171126
17:00+20nw46220 0.0 1016866
20:00+12wnw25480 0.0 1017302
19 may, wed
wed1923:00+7w13837 0.0 1019230
02:00+7w128459 0.0 1018191
05:00+6wsw11872 0.0 101881
08:00+10wnw25645 0.0 1018650
11:00+16nw46320 0.0 10161089
14:00+18wnw46300 0.0 10151223
17:00+15wnw46360 0.0 10141003
20:00+9wnw37610 0.0 1016507
20 may, thu
thu2023:00+6w26852 0.0 1017383
02:00+5wsw15861 0.0 1017286
05:00+5w25850 0.0 1017343
08:00+9nw410620 0.0 1017917
11:00+14nw610360 0.0 10171521
14:00+15nw69340 0.0 10161676
17:00+14wnw68410 0.0 10151288
20:00+9nw37660 0.0 1016532